�������l�o���
Date,Time,MP-1(��Sv/h),MP-2(��Sv/h),MP-3(��Sv/h),MP-4(��Sv/h),MP-5(��Sv/h),MP-6(��Sv/h),MP-7(��Sv/h),MP-8(��Sv/h),����,����(m/s),���J
2021/11/03,00:00,0.588,0.884,0.560,1.078,0.760,0.359,0.622,0.585,�k��,4.6,��
2021/11/03,00:10,0.589,0.882,0.559,1.077,0.759,0.358,0.621,0.584,�k��,4.9,��
2021/11/03,00:20,0.586,0.884,0.561,1.077,0.757,0.359,0.622,0.584,�k��,5.9,��
2021/11/03,00:30,0.589,0.882,0.559,1.078,0.757,0.357,0.622,0.584,���k��,6.0,��
2021/11/03,00:40,0.589,0.883,0.562,1.077,0.760,0.359,0.622,0.584,�k��,7.4,��
2021/11/03,00:50,0.589,0.884,0.560,1.078,0.758,0.359,0.621,0.583,�k��,6.6,��
2021/11/03,01:00,0.588,0.884,0.561,1.076,0.758,0.358,0.623,0.586,�k��,6.3,��
2021/11/03,01:10,0.587,0.884,0.561,1.078,0.756,0.359,0.622,0.584,�k��,5.3,��
2021/11/03,01:20,0.588,0.884,0.560,1.078,0.758,0.359,0.621,0.585,���k��,5.9,��
2021/11/03,01:30,0.589,0.882,0.561,1.077,0.757,0.359,0.623,0.584,�k��,5.9,��
2021/11/03,01:40,0.589,0.884,0.560,1.077,0.759,0.359,0.623,0.585,�k��,5.1,��
2021/11/03,01:50,0.588,0.882,0.560,1.078,0.756,0.359,0.622,0.584,�k��,5.6,��
2021/11/03,02:00,0.588,0.885,0.559,1.078,0.759,0.359,0.623,0.584,�k��,5.1,��
2021/11/03,02:10,0.589,0.883,0.560,1.078,0.758,0.358,0.622,0.584,�k��,4.5,��
2021/11/03,02:20,0.589,0.884,0.561,1.076,0.758,0.358,0.621,0.584,���k��,5.3,��
2021/11/03,02:30,0.588,0.882,0.559,1.079,0.759,0.357,0.622,0.584,���k��,4.8,��
2021/11/03,02:40,0.588,0.883,0.560,1.075,0.758,0.358,0.622,0.583,���k��,4.4,��
2021/11/03,02:50,0.588,0.885,0.560,1.080,0.757,0.358,0.622,0.585,���k��,4.7,��
2021/11/03,03:00,0.588,0.883,0.560,1.078,0.760,0.358,0.623,0.584,���k��,4.7,��
2021/11/03,03:10,0.589,0.885,0.559,1.078,0.761,0.359,0.621,0.583,�k��,4.9,��
2021/11/03,03:20,0.590,0.882,0.561,1.078,0.758,0.358,0.623,0.585,�k��,5.3,��
2021/11/03,03:30,0.589,0.884,0.561,1.079,0.758,0.359,0.623,0.584,�k��,5.9,��
2021/11/03,03:40,0.589,0.883,0.562,1.078,0.759,0.360,0.624,0.582,�k��,6.2,��
2021/11/03,03:50,0.590,0.881,0.560,1.078,0.756,0.359,0.625,0.585,�k��,5.9,��
2021/11/03,04:00,0.588,0.882,0.561,1.078,0.757,0.359,0.622,0.584,�k��,6.0,��
2021/11/03,04:10,0.588,0.883,0.561,1.079,0.757,0.358,0.622,0.583,�k��,6.2,��
2021/11/03,04:20,0.588,0.883,0.560,1.078,0.758,0.358,0.623,0.583,�k��,5.7,��
2021/11/03,04:30,0.589,0.882,0.559,1.078,0.759,0.359,0.623,0.584,�k��,5.3,��
2021/11/03,04:40,0.586,0.880,0.560,1.080,0.759,0.359,0.624,0.584,�k��,6.2,��
2021/11/03,04:50,0.588,0.882,0.560,1.078,0.758,0.359,0.623,0.585,�k��,6.4,��
2021/11/03,05:00,0.587,0.881,0.561,1.081,0.759,0.358,0.624,0.584,�k��,6.0,��
2021/11/03,05:10,0.586,0.882,0.561,1.079,0.758,0.358,0.622,0.582,�k�k��,4.9,��
2021/11/03,05:20,0.587,0.882,0.560,1.077,0.758,0.360,0.624,0.583,�k�k��,5.6,��
2021/11/03,05:30,0.588,0.882,0.560,1.080,0.756,0.357,0.624,0.584,�k�k��,5.6,��
2021/11/03,05:40,0.585,0.883,0.561,1.079,0.759,0.357,0.623,0.583,�k�k��,5.4,��
2021/11/03,05:50,0.588,0.883,0.560,1.077,0.758,0.359,0.622,0.585,�k�k��,4.8,��
2021/11/03,06:00,0.586,0.883,0.561,1.078,0.759,0.357,0.622,0.584,�k��,4.4,��
2021/11/03,06:10,0.588,0.881,0.561,1.076,0.758,0.357,0.624,0.583,�k�k��,4.7,��
2021/11/03,06:20,0.588,0.882,0.561,1.080,0.758,0.359,0.624,0.584,�k��,5.2,��
2021/11/03,06:30,0.588,0.883,0.560,1.080,0.759,0.357,0.623,0.582,�k��,6.0,��
2021/11/03,06:40,0.589,0.883,0.561,1.079,0.757,0.359,0.623,0.584,���k��,5.7,��
2021/11/03,06:50,0.588,0.882,0.560,1.078,0.757,0.359,0.623,0.584,���k��,5.7,��
2021/11/03,07:00,0.588,0.881,0.560,1.080,0.757,0.359,0.625,0.585,�k��,4.8,��
2021/11/03,07:10,0.589,0.884,0.561,1.078,0.759,0.358,0.624,0.584,�k�k��,5.0,��
2021/11/03,07:20,0.587,0.883,0.561,1.076,0.759,0.358,0.623,0.584,�k�k��,6.6,��
2021/11/03,07:30,0.588,0.883,0.562,1.080,0.757,0.358,0.623,0.583,�k�k��,6.3,��
2021/11/03,07:40,0.588,0.883,0.560,1.078,0.758,0.358,0.625,0.584,�k��,6.0,��
2021/11/03,07:50,0.587,0.881,0.560,1.080,0.756,0.358,0.625,0.583,�k��,5.9,��
2021/11/03,08:00,0.590,0.882,0.561,1.081,0.758,0.359,0.625,0.583,�k��,4.9,��
2021/11/03,08:10,0.588,0.882,0.560,1.078,0.758,0.359,0.625,0.583,�k�k��,4.3,��
2021/11/03,08:20,0.590,0.881,0.560,1.077,0.759,0.358,0.624,0.585,�k��,4.9,��
2021/11/03,08:30,0.590,0.881,0.561,1.078,0.758,0.359,0.624,0.584,�k�k��,3.8,��
2021/11/03,08:40,0.589,0.880,0.561,1.079,0.759,0.359,0.623,0.585,�k�k��,3.8,��
2021/11/03,08:50,0.590,0.877,0.561,1.082,0.759,0.359,0.623,0.585,�k�k��,4.3,��
2021/11/03,09:00,0.588,0.880,0.561,1.077,0.759,0.358,0.624,0.585,�k�k��,3.4,��
2021/11/03,09:10,0.588,0.883,0.561,1.079,0.761,0.359,0.623,0.585,�k�k��,4.0,��
2021/11/03,09:20,0.587,0.880,0.562,1.078,0.759,0.360,0.624,0.585,�k,3.9,��
2021/11/03,09:30,0.589,0.881,0.562,1.080,0.760,0.360,0.623,0.584,�k,4.1,��
2021/11/03,09:40,0.588,0.880,0.561,1.079,0.760,0.358,0.625,0.585,�k�k��,2.6,��
2021/11/03,09:50,0.588,0.880,0.561,1.080,0.757,0.359,0.626,0.586,�k,2.8,��
2021/11/03,10:00,0.588,0.880,0.561,1.079,0.757,0.358,0.624,0.586,�k�k��,3.3,��
2021/11/03,10:10,0.590,0.881,0.560,1.079,0.758,0.358,0.624,0.585,�k�k��,4.8,��
2021/11/03,10:20,0.590,0.880,0.561,1.082,0.760,0.357,0.624,0.585,�k,4.1,��
2021/11/03,10:30,0.588,0.882,0.558,1.080,0.759,0.358,0.623,0.585,�k�k��,4.5,��
2021/11/03,10:40,0.590,0.883,0.561,1.083,0.760,0.358,0.624,0.585,�k�k��,5.0,��
2021/11/03,10:50,0.589,0.881,0.559,1.082,0.758,0.357,0.627,0.584,�k,5.1,��
2021/11/03,11:00,0.590,0.881,0.561,1.083,0.761,0.359,0.625,0.585,�k�k��,5.3,��
2021/11/03,11:10,0.590,0.880,0.560,1.081,0.759,0.358,0.624,0.586,�k�k��,3.5,��
2021/11/03,11:20,0.589,0.883,0.561,1.081,0.760,0.358,0.624,0.586,�k,4.1,��
2021/11/03,11:30,0.591,0.884,0.561,1.082,0.759,0.359,0.623,0.585,�k�k��,4.0,��
2021/11/03,11:40,0.589,0.885,0.563,1.081,0.760,0.358,0.624,0.584,�k�k��,4.1,��
2021/11/03,11:50,0.591,0.883,0.562,1.082,0.759,0.358,0.623,0.585,�k��,2.2,��
2021/11/03,12:00,0.591,0.887,0.563,1.084,0.760,0.358,0.624,0.584,�k�k��,2.6,��
2021/11/03,12:10,0.591,0.883,0.562,1.082,0.761,0.357,0.625,0.585,�k��,3.9,��
2021/11/03,12:20,0.592,0.885,0.562,1.082,0.761,0.358,0.624,0.583,�k�k��,6.0,��
2021/11/03,12:30,0.590,0.886,0.563,1.082,0.761,0.359,0.624,0.584,�k,4.1,��
2021/11/03,12:40,0.592,0.886,0.563,1.084,0.762,0.358,0.623,0.582,�k�k��,3.5,��
2021/11/03,12:50,0.590,0.884,0.562,1.082,0.762,0.358,0.624,0.583,�k��,4.7,��
2021/11/03,13:00,0.591,0.885,0.560,1.082,0.760,0.358,0.624,0.583,�k�k��,5.3,��
2021/11/03,13:10,0.589,0.886,0.561,1.083,0.761,0.358,0.621,0.584,�k��,3.7,��
2021/11/03,13:20,0.590,0.885,0.562,1.083,0.759,0.358,0.624,0.584,�k�k��,4.6,��
2021/11/03,13:30,0.592,0.885,0.562,1.083,0.760,0.358,0.623,0.584,�k��,4.9,��
2021/11/03,13:40,0.591,0.886,0.561,1.085,0.760,0.359,0.622,0.583,�k��,4.5,��
2021/11/03,13:50,0.591,0.886,0.560,1.084,0.763,0.358,0.623,0.584,�k�k��,5.0,��
2021/11/03,14:00,0.590,0.884,0.562,1.083,0.762,0.359,0.624,0.584,�k��,4.7,��
2021/11/03,14:10,0.592,0.885,0.560,1.083,0.762,0.358,0.623,0.584,�k��,3.3,��
2021/11/03,14:20,0.591,0.883,0.562,1.082,0.763,0.358,0.624,0.584,�k�k��,3.6,��
2021/11/03,14:30,0.590,0.884,0.562,1.084,0.760,0.359,0.623,0.586,�k�k��,3.9,��
2021/11/03,14:40,0.590,0.881,0.563,1.083,0.761,0.359,0.624,0.584,�k�k��,4.9,��
2021/11/03,14:50,0.590,0.884,0.562,1.083,0.761,0.358,0.623,0.584,�k,4.5,��
2021/11/03,15:00,0.591,0.883,0.562,1.083,0.760,0.359,0.623,0.583,�k,3.8,��
2021/11/03,15:10,0.590,0.885,0.562,1.085,0.762,0.358,0.623,0.584,�k�k��,4.3,��
2021/11/03,15:20,0.591,0.883,0.562,1.082,0.762,0.360,0.623,0.585,�k�k��,5.1,��
2021/11/03,15:30,0.590,0.884,0.561,1.082,0.762,0.360,0.622,0.583,�k��,5.8,��
2021/11/03,15:40,0.591,0.883,0.561,1.085,0.760,0.360,0.622,0.584,�k��,4.2,��
2021/11/03,15:50,0.589,0.886,0.562,1.085,0.761,0.360,0.622,0.583,�k��,6.4,��
2021/11/03,16:00,0.589,0.886,0.560,1.084,0.762,0.360,0.623,0.584,�k��,5.8,��
2021/11/03,16:10,0.590,0.888,0.562,1.085,0.761,0.360,0.623,0.585,���k��,4.8,��
2021/11/03,16:20,0.590,0.887,0.560,1.082,0.762,0.360,0.624,0.585,���k��,4.2,��
2021/11/03,16:30,0.590,0.887,0.561,1.084,0.763,0.359,0.623,0.585,���k��,3.2,��
2021/11/03,16:40,0.589,0.888,0.562,1.084,0.763,0.360,0.623,0.587,�k��,2.2,��
2021/11/03,16:50,0.590,0.890,0.565,1.085,0.765,0.359,0.625,0.586,�k��,2.9,��
2021/11/03,17:00,0.592,0.888,0.565,1.085,0.764,0.359,0.625,0.587,���k��,4.6,��
2021/11/03,17:10,0.593,0.887,0.562,1.085,0.763,0.359,0.624,0.586,�k��,3.4,��
2021/11/03,17:20,0.592,0.889,0.563,1.084,0.763,0.359,0.626,0.588,���k��,3.5,��
2021/11/03,17:30,0.592,0.886,0.564,1.084,0.763,0.359,0.626,0.585,�k��,2.5,��
2021/11/03,17:40,0.592,0.889,0.563,1.084,0.764,0.360,0.626,0.584,���k��,3.9,��
2021/11/03,17:50,0.590,0.888,0.563,1.082,0.765,0.361,0.625,0.586,�k��,5.3,��
2021/11/03,18:00,0.590,0.888,0.563,1.084,0.764,0.360,0.625,0.585,���k��,5.9,��
2021/11/03,18:10,0.592,0.891,0.563,1.082,0.764,0.360,0.624,0.587,�k��,6.5,��
2021/11/03,18:20,0.591,0.886,0.565,1.083,0.762,0.360,0.627,0.585,�k��,3.5,��
2021/11/03,18:30,0.591,0.890,0.563,1.085,0.763,0.360,0.625,0.585,�k��,3.6,��
2021/11/03,18:40,0.592,0.889,0.562,1.082,0.762,0.360,0.623,0.584,���k��,3.5,��
2021/11/03,18:50,0.590,0.887,0.563,1.084,0.762,0.359,0.625,0.585,���k��,4.6,��
2021/11/03,19:00,0.592,0.886,0.563,1.082,0.765,0.359,0.626,0.585,���k��,5.3,��
2021/11/03,19:10,0.592,0.891,0.563,1.084,0.764,0.359,0.625,0.585,���k��,5.8,��
2021/11/03,19:20,0.594,0.888,0.564,1.085,0.764,0.360,0.625,0.584,�k��,5.3,��
2021/11/03,19:30,0.592,0.889,0.563,1.084,0.763,0.359,0.626,0.585,�k��,4.6,��
2021/11/03,19:40,0.592,0.889,0.563,1.083,0.766,0.359,0.623,0.586,�k��,4.7,��
2021/11/03,19:50,0.593,0.886,0.563,1.085,0.763,0.359,0.623,0.585,�k��,5.6,��
2021/11/03,20:00,0.592,0.888,0.561,1.084,0.762,0.359,0.626,0.585,�k��,5.9,��
2021/11/03,20:10,0.591,0.888,0.563,1.083,0.765,0.361,0.624,0.585,�k��,6.1,��
2021/11/03,20:20,0.591,0.890,0.563,1.084,0.762,0.358,0.625,0.585,�k��,5.1,��
2021/11/03,20:30,0.592,0.887,0.563,1.084,0.762,0.360,0.626,0.584,���k��,4.3,��
2021/11/03,20:40,0.591,0.888,0.562,1.084,0.764,0.358,0.626,0.586,���k��,5.1,��
2021/11/03,20:50,0.590,0.889,0.563,1.084,0.764,0.358,0.625,0.586,�k��,5.7,��
2021/11/03,21:00,0.593,0.886,0.563,1.083,0.764,0.359,0.624,0.585,�k��,5.7,��
2021/11/03,21:10,0.593,0.888,0.564,1.085,0.763,0.359,0.624,0.584,���k��,4.4,��
2021/11/03,21:20,0.591,0.887,0.561,1.085,0.764,0.358,0.624,0.586,���k��,3.7,��
2021/11/03,21:30,0.590,0.887,0.563,1.085,0.764,0.358,0.624,0.587,���k��,3.6,��
2021/11/03,21:40,0.592,0.887,0.563,1.086,0.763,0.358,0.625,0.584,���k��,4.4,��
2021/11/03,21:50,0.591,0.889,0.562,1.083,0.765,0.358,0.625,0.585,���k��,3.5,��
2021/11/03,22:00,0.591,0.888,0.563,1.084,0.765,0.359,0.626,0.587,���k��,3.9,��
2021/11/03,22:10,0.590,0.887,0.565,1.084,0.765,0.360,0.624,0.585,���k��,4.8,��
2021/11/03,22:20,0.592,0.888,0.563,1.081,0.763,0.360,0.625,0.587,���k��,4.9,��
2021/11/03,22:30,0.591,0.888,0.562,1.079,0.763,0.358,0.624,0.587,���k��,4.6,��
2021/11/03,22:40,0.592,0.887,0.564,1.081,0.763,0.360,0.626,0.586,���k��,5.5,��
2021/11/03,22:50,0.592,0.891,0.563,1.082,0.763,0.359,0.625,0.585,���k��,7.2,��
2021/11/03,23:00,0.592,0.887,0.561,1.084,0.762,0.358,0.625,0.585,�k��,6.5,��
2021/11/03,23:10,0.592,0.888,0.563,1.085,0.765,0.360,0.625,0.586,���k��,6.0,��
2021/11/03,23:20,0.593,0.888,0.564,1.084,0.762,0.359,0.625,0.585,���k��,6.3,��
2021/11/03,23:30,0.592,0.890,0.563,1.082,0.763,0.358,0.625,0.586,���k��,6.3,��
2021/11/03,23:40,0.590,0.887,0.563,1.085,0.762,0.357,0.624,0.585,��,6.2,��
2021/11/03,23:50,0.591,0.886,0.563,1.082,0.764,0.359,0.626,0.586,��,6.6,��
